Year,Month,Day,Hour,Minute,Value (Times are PST for temperature in C)
2013,07,16,00,00,15.90
2013,07,16,00,01,15.90
2013,07,16,00,02,15.80
2013,07,16,00,03,15.80
2013,07,16,00,04,15.80
2013,07,16,00,05,15.80
2013,07,16,00,06,15.80
2013,07,16,00,07,15.80
2013,07,16,00,08,15.70
2013,07,16,00,09,15.70
2013,07,16,00,10,15.70
2013,07,16,00,11,15.70
2013,07,16,00,12,15.60
2013,07,16,00,13,15.60
2013,07,16,00,14,15.60
2013,07,16,00,15,15.60
2013,07,16,00,16,15.50
2013,07,16,00,17,15.50
2013,07,16,00,18,15.50
2013,07,16,00,19,15.50
2013,07,16,00,20,15.40
2013,07,16,00,21,15.40
2013,07,16,00,22,15.40
2013,07,16,00,23,15.40
2013,07,16,00,24,15.30
2013,07,16,00,25,15.30
2013,07,16,00,26,15.30
2013,07,16,00,27,15.30
2013,07,16,00,28,15.30
2013,07,16,00,29,15.30
2013,07,16,00,30,15.20
2013,07,16,00,31,15.20
2013,07,16,00,32,15.20
2013,07,16,00,33,15.20
2013,07,16,00,34,15.20
2013,07,16,00,35,15.20
2013,07,16,00,36,15.20
2013,07,16,00,37,15.10
2013,07,16,00,38,15.10
2013,07,16,00,39,15.10
2013,07,16,00,40,15.10
2013,07,16,00,41,15.10
2013,07,16,00,42,15.00
2013,07,16,00,43,15.00
2013,07,16,00,44,15.00
2013,07,16,00,45,15.00
2013,07,16,00,46,15.00
2013,07,16,00,47,15.00
2013,07,16,00,48,15.00
2013,07,16,00,49,15.00
2013,07,16,00,50,15.00
2013,07,16,00,51,14.90
2013,07,16,00,52,14.90
2013,07,16,00,53,14.90
2013,07,16,00,54,14.90
2013,07,16,00,55,14.90
2013,07,16,00,56,14.90
2013,07,16,00,57,14.90
2013,07,16,00,58,14.90
2013,07,16,00,59,14.90
2013,07,16,01,00,14.90
2013,07,16,01,01,14.90
2013,07,16,01,02,14.80
2013,07,16,01,03,14.80
2013,07,16,01,04,14.80
2013,07,16,01,05,14.80
2013,07,16,01,06,14.80
2013,07,16,01,07,14.80
2013,07,16,01,08,14.80
2013,07,16,01,09,14.80
2013,07,16,01,10,14.70
2013,07,16,01,11,14.70
2013,07,16,01,12,14.70
2013,07,16,01,13,14.70
2013,07,16,01,14,14.70
2013,07,16,01,15,14.70
2013,07,16,01,16,14.60
2013,07,16,01,17,14.60
2013,07,16,01,18,14.60
2013,07,16,01,19,14.60
2013,07,16,01,20,14.60
2013,07,16,01,21,14.50
2013,07,16,01,22,14.50
2013,07,16,01,23,14.50
2013,07,16,01,24,14.50
2013,07,16,01,25,14.50
2013,07,16,01,26,14.50
2013,07,16,01,27,14.40
2013,07,16,01,28,14.40
2013,07,16,01,29,14.40
2013,07,16,01,30,14.40
2013,07,16,01,31,14.40
2013,07,16,01,32,14.40
2013,07,16,01,33,14.40
2013,07,16,01,34,14.30
2013,07,16,01,35,14.30
2013,07,16,01,36,14.30
2013,07,16,01,37,14.30
2013,07,16,01,38,14.30
2013,07,16,01,39,14.30
2013,07,16,01,40,14.30
2013,07,16,01,41,14.20
2013,07,16,01,42,14.20
2013,07,16,01,43,14.20
2013,07,16,01,44,14.20
2013,07,16,01,45,14.20
2013,07,16,01,46,14.20
2013,07,16,01,47,14.20
2013,07,16,01,48,14.10
2013,07,16,01,49,14.10
2013,07,16,01,50,14.10
2013,07,16,01,51,14.10
2013,07,16,01,52,14.10
2013,07,16,01,53,14.10
2013,07,16,01,54,14.10
2013,07,16,01,55,14.00
2013,07,16,01,56,14.00
2013,07,16,01,57,14.00
2013,07,16,01,58,14.00
2013,07,16,01,59,13.90
2013,07,16,02,00,13.90
2013,07,16,02,01,13.90
2013,07,16,02,02,13.90
2013,07,16,02,03,13.90
2013,07,16,02,04,13.90
2013,07,16,02,05,13.90
2013,07,16,02,06,13.90
2013,07,16,02,07,13.80
2013,07,16,02,08,13.80
2013,07,16,02,09,13.80
2013,07,16,02,10,13.80
2013,07,16,02,11,13.80
2013,07,16,02,12,13.80
2013,07,16,02,13,13.80
2013,07,16,02,14,13.80
2013,07,16,02,15,13.80
2013,07,16,02,16,13.80
2013,07,16,02,17,13.70
2013,07,16,02,18,13.70
2013,07,16,02,19,13.70
2013,07,16,02,20,13.70
2013,07,16,02,21,13.70
2013,07,16,02,22,13.70
2013,07,16,02,23,13.70
2013,07,16,02,24,13.70
2013,07,16,02,25,13.70
2013,07,16,02,26,13.60
2013,07,16,02,27,13.60
2013,07,16,02,28,13.60
2013,07,16,02,29,13.60
2013,07,16,02,30,13.60
2013,07,16,02,31,13.60
2013,07,16,02,32,13.60
2013,07,16,02,33,13.60
2013,07,16,02,34,13.60
2013,07,16,02,35,13.60
2013,07,16,02,36,13.60
2013,07,16,02,37,13.50
2013,07,16,02,38,13.50
2013,07,16,02,39,13.50
2013,07,16,02,40,13.50
2013,07,16,02,41,13.50
2013,07,16,02,42,13.50
2013,07,16,02,43,13.50
2013,07,16,02,44,13.40
2013,07,16,02,45,13.40
2013,07,16,02,46,13.40
2013,07,16,02,47,13.40
2013,07,16,02,48,13.40
2013,07,16,02,49,13.40
2013,07,16,02,50,13.40
2013,07,16,02,51,13.40
2013,07,16,02,52,13.40
2013,07,16,02,53,13.40
2013,07,16,02,54,13.30
2013,07,16,02,55,13.30
2013,07,16,02,56,13.30
2013,07,16,02,57,13.30
2013,07,16,02,58,13.30
2013,07,16,02,59,13.30
2013,07,16,03,00,13.30
2013,07,16,03,01,13.30
2013,07,16,03,02,13.30
2013,07,16,03,03,13.30
2013,07,16,03,04,13.30
2013,07,16,03,05,13.30
2013,07,16,03,06,13.30
2013,07,16,03,07,13.30
2013,07,16,03,08,13.30
2013,07,16,03,09,13.20
2013,07,16,03,10,13.20
2013,07,16,03,11,13.20
2013,07,16,03,12,13.20
2013,07,16,03,13,13.20
2013,07,16,03,14,13.20
2013,07,16,03,15,13.20
2013,07,16,03,16,13.20
2013,07,16,03,17,13.20
2013,07,16,03,18,13.20
2013,07,16,03,19,13.20
2013,07,16,03,20,13.20
2013,07,16,03,21,13.10
2013,07,16,03,22,13.10
2013,07,16,03,23,13.10
2013,07,16,03,24,13.10
2013,07,16,03,25,13.10
2013,07,16,03,26,13.10
2013,07,16,03,27,13.10
2013,07,16,03,28,13.10
2013,07,16,03,29,13.10
2013,07,16,03,30,13.00
2013,07,16,03,31,13.00
2013,07,16,03,32,13.00
2013,07,16,03,33,13.00
2013,07,16,03,34,13.00
2013,07,16,03,35,13.00
2013,07,16,03,36,13.00
2013,07,16,03,37,13.00
2013,07,16,03,38,13.00
2013,07,16,03,39,13.00
2013,07,16,03,40,13.00
2013,07,16,03,41,13.00
2013,07,16,03,42,13.00
2013,07,16,03,43,13.00
2013,07,16,03,44,13.00
2013,07,16,03,45,13.00
2013,07,16,03,46,13.00
2013,07,16,03,47,13.00
2013,07,16,03,48,13.00
2013,07,16,03,49,12.90
2013,07,16,03,50,12.90
2013,07,16,03,51,12.90
2013,07,16,03,52,12.90
2013,07,16,03,53,12.90
2013,07,16,03,54,12.90
2013,07,16,03,55,12.90
2013,07,16,03,56,12.90
2013,07,16,03,57,12.90
2013,07,16,03,58,12.90
2013,07,16,03,59,12.90
2013,07,16,04,00,12.90
2013,07,16,04,01,12.90
2013,07,16,04,02,12.90
2013,07,16,04,03,12.90
2013,07,16,04,04,12.90
2013,07,16,04,05,12.90
2013,07,16,04,06,12.90
2013,07,16,04,07,12.90
2013,07,16,04,08,12.90
2013,07,16,04,09,12.90
2013,07,16,04,10,12.80
2013,07,16,04,11,12.80
2013,07,16,04,12,12.80
2013,07,16,04,13,12.80
2013,07,16,04,14,12.80
2013,07,16,04,15,12.80
2013,07,16,04,16,12.80
2013,07,16,04,17,12.80
2013,07,16,04,18,12.80
2013,07,16,04,19,12.80
2013,07,16,04,20,12.80
2013,07,16,04,21,12.80
2013,07,16,04,22,12.70
2013,07,16,04,23,12.70
2013,07,16,04,24,12.70
2013,07,16,04,25,12.70
2013,07,16,04,26,12.70
2013,07,16,04,27,12.70
2013,07,16,04,28,12.70
2013,07,16,04,29,12.70
2013,07,16,04,30,12.70
2013,07,16,04,31,12.70
2013,07,16,04,32,12.70
2013,07,16,04,33,12.70
2013,07,16,04,34,12.70
2013,07,16,04,35,12.70
2013,07,16,04,36,12.70
2013,07,16,04,37,12.70
2013,07,16,04,38,12.70
2013,07,16,04,39,12.70
2013,07,16,04,40,12.70
2013,07,16,04,41,12.60
2013,07,16,04,42,12.60
2013,07,16,04,43,12.60
2013,07,16,04,44,12.60
2013,07,16,04,45,12.60
2013,07,16,04,46,12.60
2013,07,16,04,47,12.60
2013,07,16,04,48,12.60
2013,07,16,04,49,12.60
2013,07,16,04,50,12.60
2013,07,16,04,51,12.60
2013,07,16,04,52,12.60
2013,07,16,04,53,12.60
2013,07,16,04,54,12.60
2013,07,16,04,55,12.60
2013,07,16,04,56,12.50
2013,07,16,04,57,12.50
2013,07,16,04,58,12.50
2013,07,16,04,59,12.50
2013,07,16,05,00,12.50
2013,07,16,05,01,12.50
2013,07,16,05,02,12.50
2013,07,16,05,03,12.50
2013,07,16,05,04,12.50
2013,07,16,05,05,12.50
2013,07,16,05,06,12.50
2013,07,16,05,07,12.50
2013,07,16,05,08,12.50
2013,07,16,05,09,12.40
2013,07,16,05,10,12.40
2013,07,16,05,11,12.40
2013,07,16,05,12,12.40
2013,07,16,05,13,12.40
2013,07,16,05,14,12.40
2013,07,16,05,15,12.40
2013,07,16,05,16,12.40
2013,07,16,05,17,12.40
2013,07,16,05,18,12.40
2013,07,16,05,19,12.40
2013,07,16,05,20,12.40
2013,07,16,05,21,12.40
2013,07,16,05,22,12.40
2013,07,16,05,23,12.40
2013,07,16,05,24,12.40
2013,07,16,05,25,12.40
2013,07,16,05,26,12.40
2013,07,16,05,27,12.40
2013,07,16,05,28,12.40
2013,07,16,05,29,12.40
2013,07,16,05,30,12.30
2013,07,16,05,31,12.30
2013,07,16,05,32,12.30
2013,07,16,05,33,12.30
2013,07,16,05,34,12.30
2013,07,16,05,35,12.30
2013,07,16,05,36,12.30
2013,07,16,05,37,12.30
2013,07,16,05,38,12.30
2013,07,16,05,39,12.30
2013,07,16,05,40,12.30
2013,07,16,05,41,12.30
2013,07,16,05,42,12.30
2013,07,16,05,43,12.30
2013,07,16,05,44,12.30
2013,07,16,05,45,12.30
2013,07,16,05,46,12.40
2013,07,16,05,47,12.40
2013,07,16,05,48,12.40
2013,07,16,05,49,12.40
2013,07,16,05,50,12.40
2013,07,16,05,51,12.40
2013,07,16,05,52,12.40
2013,07,16,05,53,12.40
2013,07,16,05,54,12.40
2013,07,16,05,55,12.40
2013,07,16,05,56,12.40
2013,07,16,05,57,12.40
2013,07,16,05,58,12.40
2013,07,16,05,59,12.40
2013,07,16,06,00,12.40
2013,07,16,06,01,12.40
2013,07,16,06,02,12.40
2013,07,16,06,03,12.40
2013,07,16,06,04,12.50
2013,07,16,06,05,12.50
2013,07,16,06,06,12.50
2013,07,16,06,07,12.50
2013,07,16,06,08,12.50
2013,07,16,06,09,12.50
2013,07,16,06,10,12.50
2013,07,16,06,11,12.50
2013,07,16,06,12,12.50
2013,07,16,06,13,12.50
2013,07,16,06,14,12.60
2013,07,16,06,15,12.60
2013,07,16,06,16,12.60
2013,07,16,06,17,12.70
2013,07,16,06,18,12.70
2013,07,16,06,19,12.70
2013,07,16,06,20,12.70
2013,07,16,06,21,12.70
2013,07,16,06,22,12.70
2013,07,16,06,23,12.70
2013,07,16,06,24,12.80
2013,07,16,06,25,12.80
2013,07,16,06,26,12.80
2013,07,16,06,27,12.80
2013,07,16,06,28,12.80
2013,07,16,06,29,12.80
2013,07,16,06,30,12.90
2013,07,16,06,31,12.90
2013,07,16,06,32,12.90
2013,07,16,06,33,12.90
2013,07,16,06,34,12.90
2013,07,16,06,35,12.90
2013,07,16,06,36,13.00
2013,07,16,06,37,13.00
2013,07,16,06,38,13.00
2013,07,16,06,39,13.10
2013,07,16,06,40,13.10
2013,07,16,06,41,13.10
2013,07,16,06,42,13.10
2013,07,16,06,43,13.10
2013,07,16,06,44,13.10
2013,07,16,06,45,13.20
2013,07,16,06,46,13.20
2013,07,16,06,47,13.20
2013,07,16,06,48,13.20
2013,07,16,06,49,13.20
2013,07,16,06,50,13.20
2013,07,16,06,51,13.30
2013,07,16,06,52,13.30
2013,07,16,06,53,13.30
2013,07,16,06,54,13.30
2013,07,16,06,55,13.40
2013,07,16,06,56,13.40
2013,07,16,06,57,13.40
2013,07,16,06,58,13.50
2013,07,16,06,59,13.50
2013,07,16,07,00,13.60
2013,07,16,07,01,13.60
2013,07,16,07,02,13.70
2013,07,16,07,03,13.70
2013,07,16,07,04,13.70
2013,07,16,07,05,13.80
2013,07,16,07,06,13.80
2013,07,16,07,07,13.80
2013,07,16,07,08,13.80
2013,07,16,07,09,13.90
2013,07,16,07,10,13.90
2013,07,16,07,11,14.00
2013,07,16,07,12,14.10
2013,07,16,07,13,14.10
2013,07,16,07,14,14.20
2013,07,16,07,15,14.30
2013,07,16,07,16,14.40
2013,07,16,07,17,14.50
2013,07,16,07,18,14.50
2013,07,16,07,19,14.60
2013,07,16,07,20,14.70
2013,07,16,07,21,14.70
2013,07,16,07,22,14.80
2013,07,16,07,23,14.80
2013,07,16,07,24,14.90
2013,07,16,07,25,15.00
2013,07,16,07,26,15.10
2013,07,16,07,27,15.20
2013,07,16,07,28,15.30
2013,07,16,07,29,15.30
2013,07,16,07,30,15.50
2013,07,16,07,31,15.60
2013,07,16,07,32,15.70
2013,07,16,07,33,15.80
2013,07,16,07,34,15.90
2013,07,16,07,35,16.00
2013,07,16,07,36,16.10
2013,07,16,07,37,16.20
2013,07,16,07,38,16.30
2013,07,16,07,39,16.40
2013,07,16,07,40,16.40
2013,07,16,07,41,16.60
2013,07,16,07,42,16.60
2013,07,16,07,43,16.70
2013,07,16,07,44,16.80
2013,07,16,07,45,16.90
2013,07,16,07,46,17.00
2013,07,16,07,47,17.10
2013,07,16,07,48,17.20
2013,07,16,07,49,17.30
2013,07,16,07,50,17.40
2013,07,16,07,51,17.50
2013,07,16,07,52,17.70
2013,07,16,07,53,17.80
2013,07,16,07,54,17.90
2013,07,16,07,55,18.10
2013,07,16,07,56,18.20
2013,07,16,07,57,18.30
2013,07,16,07,58,18.40
2013,07,16,07,59,18.50
2013,07,16,08,00,18.50
2013,07,16,08,01,18.60
2013,07,16,08,02,18.70
2013,07,16,08,03,18.80
2013,07,16,08,04,18.90
2013,07,16,08,05,19.10
2013,07,16,08,06,19.20
2013,07,16,08,07,19.40
2013,07,16,08,08,19.60
2013,07,16,08,09,19.70
2013,07,16,08,10,19.90
2013,07,16,08,11,20.00
2013,07,16,08,12,20.10
2013,07,16,08,13,20.20
2013,07,16,08,14,20.20
2013,07,16,08,15,20.30
2013,07,16,08,16,20.30
2013,07,16,08,17,20.40
2013,07,16,08,18,20.60
2013,07,16,08,19,20.60
2013,07,16,08,20,20.70
2013,07,16,08,21,20.80
2013,07,16,08,22,20.90
2013,07,16,08,23,21.00
2013,07,16,08,24,21.00
2013,07,16,08,25,21.10
2013,07,16,08,26,21.20
2013,07,16,08,27,21.30
2013,07,16,08,28,21.40
2013,07,16,08,29,21.50
2013,07,16,08,30,21.60
2013,07,16,08,31,21.70
2013,07,16,08,32,21.80
2013,07,16,08,33,21.80
2013,07,16,08,34,21.90
2013,07,16,08,35,22.00
2013,07,16,08,36,22.10
2013,07,16,08,37,22.20
2013,07,16,08,38,22.30
2013,07,16,08,39,22.30
2013,07,16,08,40,22.40
2013,07,16,08,41,22.50
2013,07,16,08,42,22.60
2013,07,16,08,43,22.70
2013,07,16,08,44,22.80
2013,07,16,08,45,22.90
2013,07,16,08,46,23.00
2013,07,16,08,47,23.10
2013,07,16,08,48,23.20
2013,07,16,08,49,23.20
2013,07,16,08,50,23.30
2013,07,16,08,51,23.40
2013,07,16,08,52,23.40
2013,07,16,08,53,23.50
2013,07,16,08,54,23.60
2013,07,16,08,55,23.60
2013,07,16,08,56,23.70
2013,07,16,08,57,23.80
2013,07,16,08,58,23.90
2013,07,16,08,59,24.00
2013,07,16,09,00,24.00
2013,07,16,09,01,24.10
2013,07,16,09,02,24.20
2013,07,16,09,03,24.30
2013,07,16,09,04,24.30
2013,07,16,09,05,24.40
2013,07,16,09,06,24.40
2013,07,16,09,07,24.50
2013,07,16,09,08,24.60
2013,07,16,09,09,24.60
2013,07,16,09,10,24.70
2013,07,16,09,11,24.70
2013,07,16,09,12,24.70
2013,07,16,09,13,24.70
2013,07,16,09,14,24.80
2013,07,16,09,15,24.80
2013,07,16,09,16,24.80
2013,07,16,09,17,24.80
2013,07,16,09,18,24.80
2013,07,16,09,19,24.90
2013,07,16,09,20,24.90
2013,07,16,09,21,25.00
2013,07,16,09,22,25.00
2013,07,16,09,23,25.10
2013,07,16,09,24,25.10
2013,07,16,09,25,25.10
2013,07,16,09,26,25.10
2013,07,16,09,27,25.10
2013,07,16,09,28,25.20
2013,07,16,09,29,25.20
2013,07,16,09,30,25.30
2013,07,16,09,31,25.30
2013,07,16,09,32,25.30
2013,07,16,09,33,25.40
2013,07,16,09,34,25.40
2013,07,16,09,35,25.40
2013,07,16,09,36,25.40
2013,07,16,09,37,25.40
2013,07,16,09,38,25.50
2013,07,16,09,39,25.50
2013,07,16,09,40,25.50
2013,07,16,09,41,25.60
2013,07,16,09,42,25.60
2013,07,16,09,43,25.70
2013,07,16,09,44,25.70
2013,07,16,09,45,25.80
2013,07,16,09,46,25.80
2013,07,16,09,47,25.80
2013,07,16,09,48,25.90
2013,07,16,09,49,25.90
2013,07,16,09,50,26.00
2013,07,16,09,51,26.00
2013,07,16,09,52,26.10
2013,07,16,09,53,26.10
2013,07,16,09,54,26.10
2013,07,16,09,55,26.20
2013,07,16,09,56,26.20
2013,07,16,09,57,26.30
2013,07,16,09,58,26.40
2013,07,16,09,59,26.40
2013,07,16,10,00,26.40
2013,07,16,10,01,26.40
2013,07,16,10,02,26.50
2013,07,16,10,03,26.50
2013,07,16,10,04,26.60
2013,07,16,10,05,26.60
2013,07,16,10,06,26.60
2013,07,16,10,07,26.60
2013,07,16,10,08,26.70
2013,07,16,10,09,26.70
2013,07,16,10,10,26.70
2013,07,16,10,11,26.70
2013,07,16,10,12,26.80
2013,07,16,10,13,26.80
2013,07,16,10,14,26.80
2013,07,16,10,15,26.90
2013,07,16,10,16,26.90
2013,07,16,10,17,27.00
2013,07,16,10,18,27.10
2013,07,16,10,19,27.10
2013,07,16,10,20,27.10
2013,07,16,10,21,27.20
2013,07,16,10,22,27.20
2013,07,16,10,23,27.20
2013,07,16,10,24,27.30
2013,07,16,10,25,27.30
2013,07,16,10,26,27.30
2013,07,16,10,27,27.30
2013,07,16,10,28,27.20
2013,07,16,10,29,27.20
2013,07,16,10,30,27.10
2013,07,16,10,31,27.10
2013,07,16,10,32,27.20
2013,07,16,10,33,27.20
2013,07,16,10,34,27.20
2013,07,16,10,35,27.20
2013,07,16,10,36,27.20
2013,07,16,10,37,27.20
2013,07,16,10,38,27.20
2013,07,16,10,39,27.20
2013,07,16,10,40,27.20
2013,07,16,10,41,27.30
2013,07,16,10,42,27.30
2013,07,16,10,43,27.30
2013,07,16,10,44,27.30
2013,07,16,10,45,27.30
2013,07,16,10,46,27.30
2013,07,16,10,47,27.30
2013,07,16,10,48,27.30
2013,07,16,10,49,27.20
2013,07,16,10,50,27.20
2013,07,16,10,51,27.10
2013,07,16,10,52,27.10
2013,07,16,10,53,27.10
2013,07,16,10,54,27.10
2013,07,16,10,55,27.10
2013,07,16,10,56,27.10
2013,07,16,10,57,27.10
2013,07,16,10,58,27.20
2013,07,16,10,59,27.20
2013,07,16,11,00,27.20
2013,07,16,11,01,27.30
2013,07,16,11,02,27.30
2013,07,16,11,03,27.30
2013,07,16,11,04,27.30
2013,07,16,11,05,27.40
2013,07,16,11,06,27.50
2013,07,16,11,07,27.50
2013,07,16,11,08,27.50
2013,07,16,11,09,27.50
2013,07,16,11,10,27.60
2013,07,16,11,11,27.70
2013,07,16,11,12,27.70
2013,07,16,11,13,27.80
2013,07,16,11,14,27.80
2013,07,16,11,15,27.90
2013,07,16,11,16,28.00
2013,07,16,11,17,28.10
2013,07,16,11,18,28.10
2013,07,16,11,19,28.10
2013,07,16,11,20,28.10
2013,07,16,11,21,28.20
2013,07,16,11,22,28.20
2013,07,16,11,23,28.20
2013,07,16,11,24,28.20
2013,07,16,11,25,28.20
2013,07,16,11,26,28.20
2013,07,16,11,27,28.20
2013,07,16,11,28,28.30
2013,07,16,11,29,28.30
2013,07,16,11,30,28.40
2013,07,16,11,31,28.40
2013,07,16,11,32,28.40
2013,07,16,11,33,28.40
2013,07,16,11,34,28.50
2013,07,16,11,35,28.50
2013,07,16,11,36,28.60
2013,07,16,11,37,28.60
2013,07,16,11,38,28.60
2013,07,16,11,39,28.70
2013,07,16,11,40,28.70
2013,07,16,11,41,28.70
2013,07,16,11,42,28.80
2013,07,16,11,43,28.90
2013,07,16,11,44,28.90
2013,07,16,11,45,29.00
2013,07,16,11,46,29.00
2013,07,16,11,47,29.10
2013,07,16,11,48,29.10
2013,07,16,11,49,29.10
2013,07,16,11,50,29.10
2013,07,16,11,51,29.10
2013,07,16,11,52,29.10
2013,07,16,11,53,29.10
2013,07,16,11,54,29.10
2013,07,16,11,55,29.20
2013,07,16,11,56,29.20
2013,07,16,11,57,29.20
2013,07,16,11,58,29.20
2013,07,16,11,59,29.20
2013,07,16,12,00,29.20
2013,07,16,12,01,29.20
2013,07,16,12,02,29.10
2013,07,16,12,03,29.20
2013,07,16,12,04,29.20
2013,07,16,12,05,29.10
2013,07,16,12,06,29.10
2013,07,16,12,07,29.10
2013,07,16,12,08,29.10
2013,07,16,12,09,29.10
2013,07,16,12,10,29.10
2013,07,16,12,11,29.20
2013,07,16,12,12,29.20
2013,07,16,12,13,29.30
2013,07,16,12,14,29.30
2013,07,16,12,15,29.30
2013,07,16,12,16,29.30
2013,07,16,12,17,29.40
2013,07,16,12,18,29.40
2013,07,16,12,19,29.40
2013,07,16,12,20,29.40
2013,07,16,12,21,29.40
2013,07,16,12,22,29.50
2013,07,16,12,23,29.50
2013,07,16,12,24,29.60
2013,07,16,12,25,29.60
2013,07,16,12,26,29.70
2013,07,16,12,27,29.70
2013,07,16,12,28,29.80
2013,07,16,12,29,29.80
2013,07,16,12,30,29.90
2013,07,16,12,31,29.90
2013,07,16,12,32,30.00
2013,07,16,12,33,30.10
2013,07,16,12,34,30.10
2013,07,16,12,35,30.20
2013,07,16,12,36,30.20
2013,07,16,12,37,30.20
2013,07,16,12,38,30.20
2013,07,16,12,39,30.20
2013,07,16,12,40,30.20
2013,07,16,12,41,30.10
2013,07,16,12,42,30.10
2013,07,16,12,43,30.10
2013,07,16,12,44,30.00
2013,07,16,12,45,29.90
2013,07,16,12,46,29.90
2013,07,16,12,47,29.90
2013,07,16,12,48,29.80
2013,07,16,12,49,29.80
2013,07,16,12,50,29.70
2013,07,16,12,51,29.70
2013,07,16,12,52,29.70
2013,07,16,12,53,29.70
2013,07,16,12,54,29.70
2013,07,16,12,55,29.60
2013,07,16,12,56,29.60
2013,07,16,12,57,29.60
2013,07,16,12,58,29.60
2013,07,16,12,59,29.60
2013,07,16,13,00,29.60
2013,07,16,13,01,29.60
2013,07,16,13,02,29.60
2013,07,16,13,03,29.60
2013,07,16,13,04,29.60
2013,07,16,13,05,29.60
2013,07,16,13,06,29.70
2013,07,16,13,07,29.60
2013,07,16,13,08,29.70
2013,07,16,13,09,29.70
2013,07,16,13,10,29.70
2013,07,16,13,11,29.70
2013,07,16,13,12,29.70
2013,07,16,13,13,29.70
2013,07,16,13,14,29.70
2013,07,16,13,15,29.70
2013,07,16,13,16,29.70
2013,07,16,13,17,29.70
2013,07,16,13,18,29.70
2013,07,16,13,19,29.60
2013,07,16,13,20,29.70
2013,07,16,13,21,29.60
2013,07,16,13,22,29.70
2013,07,16,13,23,29.70
2013,07,16,13,24,29.70
2013,07,16,13,25,29.70
2013,07,16,13,26,29.70
2013,07,16,13,27,29.70
2013,07,16,13,28,29.70
2013,07,16,13,29,29.70
2013,07,16,13,30,29.70
2013,07,16,13,31,29.60
2013,07,16,13,32,29.60
2013,07,16,13,33,29.60
2013,07,16,13,34,29.60
2013,07,16,13,35,29.60
2013,07,16,13,36,29.60
2013,07,16,13,37,29.60
2013,07,16,13,38,29.60
2013,07,16,13,39,29.60
2013,07,16,13,40,29.60
2013,07,16,13,41,29.60
2013,07,16,13,42,29.60
2013,07,16,13,43,29.60
2013,07,16,13,44,29.60
2013,07,16,13,45,29.50
2013,07,16,13,46,29.50
2013,07,16,13,47,29.50
2013,07,16,13,48,29.50
2013,07,16,13,49,29.50
2013,07,16,13,50,29.50
2013,07,16,13,51,29.40
2013,07,16,13,52,29.40
2013,07,16,13,53,29.50
2013,07,16,13,54,29.50
2013,07,16,13,55,29.60
2013,07,16,13,56,29.50
2013,07,16,13,57,29.50
2013,07,16,13,58,29.50
2013,07,16,13,59,29.40
2013,07,16,14,00,29.40
2013,07,16,14,01,29.40
2013,07,16,14,02,29.30
2013,07,16,14,03,29.30
2013,07,16,14,04,29.30
2013,07,16,14,05,29.30
2013,07,16,14,06,29.30
2013,07,16,14,07,29.20
2013,07,16,14,08,29.20
2013,07,16,14,09,29.20
2013,07,16,14,10,29.20
2013,07,16,14,11,29.20
2013,07,16,14,12,29.20
2013,07,16,14,13,29.20
2013,07,16,14,14,29.20
2013,07,16,14,15,29.20
2013,07,16,14,16,29.20
2013,07,16,14,17,29.10
2013,07,16,14,18,29.10
2013,07,16,14,19,29.10
2013,07,16,14,20,29.10
2013,07,16,14,21,29.10
2013,07,16,14,22,29.10
2013,07,16,14,23,29.00
2013,07,16,14,24,28.80
2013,07,16,14,25,28.60
2013,07,16,14,26,28.40
2013,07,16,14,27,28.20
2013,07,16,14,28,28.10
2013,07,16,14,29,28.00
2013,07,16,14,30,27.90
2013,07,16,14,31,27.80
2013,07,16,14,32,27.70
2013,07,16,14,33,27.50
2013,07,16,14,34,27.40
2013,07,16,14,35,27.30
2013,07,16,14,36,27.20
2013,07,16,14,37,27.10
2013,07,16,14,38,26.90
2013,07,16,14,39,26.80
2013,07,16,14,40,26.80
2013,07,16,14,41,26.70
2013,07,16,14,42,26.60
2013,07,16,14,43,26.50
2013,07,16,14,44,26.40
2013,07,16,14,45,26.30
2013,07,16,14,46,26.20
2013,07,16,14,47,26.10
2013,07,16,14,48,26.00
2013,07,16,14,49,26.00
2013,07,16,14,50,25.90
2013,07,16,14,51,25.80
2013,07,16,14,52,25.80
2013,07,16,14,53,25.70
2013,07,16,14,54,25.70
2013,07,16,14,55,25.60
2013,07,16,14,56,25.60
2013,07,16,14,57,25.50
2013,07,16,14,58,25.50
2013,07,16,14,59,25.40
2013,07,16,15,00,25.40
2013,07,16,15,01,25.40
2013,07,16,15,02,25.30
2013,07,16,15,03,25.30
2013,07,16,15,04,25.20
2013,07,16,15,05,25.20
2013,07,16,15,06,25.20
2013,07,16,15,07,25.10
2013,07,16,15,08,25.10
2013,07,16,15,09,25.10
2013,07,16,15,10,25.10
2013,07,16,15,11,25.10
2013,07,16,15,12,25.00
2013,07,16,15,13,25.00
2013,07,16,15,14,25.00
2013,07,16,15,15,25.00
2013,07,16,15,16,25.00
2013,07,16,15,17,25.00
2013,07,16,15,18,25.00
2013,07,16,15,19,25.00
2013,07,16,15,20,25.10
2013,07,16,15,21,25.10
2013,07,16,15,22,25.20
2013,07,16,15,23,25.20
2013,07,16,15,24,25.30
2013,07,16,15,25,25.40
2013,07,16,15,26,25.50
2013,07,16,15,27,25.60
2013,07,16,15,28,25.70
2013,07,16,15,29,25.80
2013,07,16,15,30,25.90
2013,07,16,15,31,26.00
2013,07,16,15,32,26.10
2013,07,16,15,33,26.20
2013,07,16,15,34,26.30
2013,07,16,15,35,26.40
2013,07,16,15,36,26.50
2013,07,16,15,37,26.50
2013,07,16,15,38,26.60
2013,07,16,15,39,26.70
2013,07,16,15,40,26.70
2013,07,16,15,41,26.80
2013,07,16,15,42,26.90
2013,07,16,15,43,26.90
2013,07,16,15,44,27.00
2013,07,16,15,45,27.10
2013,07,16,15,46,27.20
2013,07,16,15,47,27.30
2013,07,16,15,48,27.40
2013,07,16,15,49,27.50
2013,07,16,15,50,27.60
2013,07,16,15,51,27.70
2013,07,16,15,52,27.80
2013,07,16,15,53,27.80
2013,07,16,15,54,27.90
2013,07,16,15,55,28.00
2013,07,16,15,56,28.10
2013,07,16,15,57,28.10
2013,07,16,15,58,28.20
2013,07,16,15,59,28.20
2013,07,16,16,00,28.20
2013,07,16,16,01,28.20
2013,07,16,16,02,28.20
2013,07,16,16,03,28.20
2013,07,16,16,04,28.10
2013,07,16,16,05,28.10
2013,07,16,16,06,28.10
2013,07,16,16,07,28.10
2013,07,16,16,08,28.10
2013,07,16,16,09,28.00
2013,07,16,16,10,28.00
2013,07,16,16,11,27.90
2013,07,16,16,12,27.90
2013,07,16,16,13,27.90
2013,07,16,16,14,27.90
2013,07,16,16,15,27.80
2013,07,16,16,16,27.80
2013,07,16,16,17,27.80
2013,07,16,16,18,27.80
2013,07,16,16,19,27.80
2013,07,16,16,20,27.80
2013,07,16,16,21,27.70
2013,07,16,16,22,27.70
2013,07,16,16,23,27.70
2013,07,16,16,24,27.70
2013,07,16,16,25,27.70
2013,07,16,16,26,27.70
2013,07,16,16,27,27.70
2013,07,16,16,28,27.70
2013,07,16,16,29,27.70
2013,07,16,16,30,27.70
2013,07,16,16,31,27.70
2013,07,16,16,32,27.70
2013,07,16,16,33,27.70
2013,07,16,16,34,27.70
2013,07,16,16,35,27.70
2013,07,16,16,36,27.70
2013,07,16,16,37,27.70
2013,07,16,16,38,27.70
2013,07,16,16,39,27.70
2013,07,16,16,40,27.80
2013,07,16,16,41,27.80
2013,07,16,16,42,27.90
2013,07,16,16,43,27.90
2013,07,16,16,44,28.00
2013,07,16,16,45,28.00
2013,07,16,16,46,28.10
2013,07,16,16,47,28.10
2013,07,16,16,48,28.10
2013,07,16,16,49,28.10
2013,07,16,16,50,28.10
2013,07,16,16,51,28.20
2013,07,16,16,52,28.20
2013,07,16,16,53,28.20
2013,07,16,16,54,28.20
2013,07,16,16,55,28.20
2013,07,16,16,56,28.20
2013,07,16,16,57,28.20
2013,07,16,16,58,28.20
2013,07,16,16,59,28.30
2013,07,16,17,00,28.30
2013,07,16,17,01,28.20
2013,07,16,17,02,28.20
2013,07,16,17,03,28.30
2013,07,16,17,04,28.30
2013,07,16,17,05,28.30
2013,07,16,17,06,28.30
2013,07,16,17,07,28.30
2013,07,16,17,08,28.30
2013,07,16,17,09,28.40
2013,07,16,17,10,28.40
2013,07,16,17,11,28.40
2013,07,16,17,12,28.40
2013,07,16,17,13,28.50
2013,07,16,17,14,28.50
2013,07,16,17,15,28.50
2013,07,16,17,16,28.50
2013,07,16,17,17,28.50
2013,07,16,17,18,28.50
2013,07,16,17,19,28.40